Regional Weather Roundup
Issued by NWS

Home | Current Version | Previous Version | Text Only | Print | Product List | Glossary On
Versions: 1 2 3 4 5 6 7 8 9 10 11 12 13 14 15 16 17 18 19 20 21 22 23 24 25 26 27 28 29 30 31 32 33 34 35 36 37 38 39 40 41 42 43 44 45 46 47 48 49
000
ASUS43 KDMX 310407
RWRIA

WEATHER ROUNDUP FOR IOWA
NATIONAL WEATHER SERVICE DES MOINES IA
1100 PM CDT WED JUL 30 2014

NOTE: "FAIR" INDICATES FEW OR NO CLOUDS BELOW 12,000 FEET WITH NO
SIGNIFICANT WEATHER AND/OR OBSTRUCTIONS TO VISIBILITY.

* - THESE STATIONS ARE NOT NWS STATIONS...THUS NOT UNDER NWS
QUALITY CONTROL.  THEY ALSO DO NOT REPORT WEATHER SUCH
AS PRECIPITATION OR FOG.

IAZ001>003-012>014-020>022-031>034-043>046-310500-
   NORTHWEST IOWA

CITY           SKY/WX    TMP DP  RH WIND       PRES   REMARKS
CARROLL *      CLOUDY    57  55  94 NW3       30.11S
CHEROKEE *     CLEAR     61  61 100 CALM      30.11S
DENISON *      PTCLDY    61  59  94 SE5       30.10S
LE MARS *      CLEAR     61  57  88 CALM      30.11S
ORANGE CITY *  CLEAR     66  55  68 CALM      30.12S
SHELDON *      CLEAR     59  57  94 CALM      30.10S
SIOUX CITY     CLEAR     62  56  80 CALM      30.11S
SPENCER        CLEAR     60  57  89 CALM      30.11S
STORM LAKE *   CLEAR     63  59  88 W6        30.12S
$$

IAZ055>058-069>071-079>083-090>094-310500-
   SOUTHWEST IOWA

CITY           SKY/WX    TMP DP  RH WIND       PRES   REMARKS
ATLANTIC *     CLOUDY    59  57  94 N3        30.11S
AUDUBON *      CLEAR     59  55  88 CALM      30.13S
CLARINDA *     CLEAR     59  55  88 CALM      30.13R
COUNCIL BLFS *   N/A     64  57  77 E3        30.11S
CRESTON *      CLEAR     63  57  82 CALM      30.12R
HARLAN  *      CLEAR     59  57  94 CALM      30.15S
LAMONI         CLEAR     65  56  72 N3        30.11R
RED OAK *      CLEAR     59  55  88 CALM      30.12R
SHENANDOAH *   PTCLDY    61  57  88 CALM      30.12S
$$

IAZ047>049-059>061-072>074-084-310500-
   CENTRAL IOWA

CITY           SKY/WX    TMP DP  RH WIND       PRES   REMARKS
AMES           CLEAR     61  58  90 CALM      30.09S
ANKENY *       CLEAR     61  57  88 CALM      30.10R
CHARITON *     CLEAR     64  59  82 W6        30.10S
DES MOINES     CLEAR     70  56  61 CALM      30.09S
GRINNELL*      CLEAR     64  59  82 W3        30.09S
KNOXVILLE *    CLEAR     66  57  72 NW5       30.08S
MARSHALLTOWN   CLEAR     63  60  90 W6        30.08S
PELLA *        CLEAR     64  59  82 W5        30.10R
PERRY *          N/A     61  59  94 W5        30.10S
$$

IAZ004>006-015-016-023>025-035-036-310500-
   NORTH CENTRAL IOWA

CITY           SKY/WX    TMP DP  RH WIND       PRES   REMARKS
ALGONA *       CLEAR     63  59  88 NW6       30.11R
CLARION *      CLEAR     61  59  94 CALM      30.10R
ESTHERVILLE    CLEAR     59  56  89 W5        30.11R
FORT DODGE *   CLEAR     61  57  88 CALM      30.11S
MASON CITY     CLEAR     60  57  89 W5        30.10S
FOREST CITY *  CLEAR     59  59 100 CALM      30.09S
IOWA FALLS *     N/A     63  59  88 CALM      30.10S
$$

IAZ007>011-017>019-026>030-037>042-050>054-066-310500-
   NORTHEAST IOWA

CITY           SKY/WX    TMP DP  RH WIND       PRES   REMARKS
CEDAR RAPIDS   CLEAR     64  61  90 NW5       30.06S
CHARLES CITY * CLEAR     63  59  88 W6        30.09R
CLINTON *      CLEAR     63  57  82 N5        30.08S
DECORAH *      CLEAR     64  61  88 CALM      30.06S
DUBUQUE        CLEAR     61  58  90 CALM      30.07R
MONTICELLO *   CLEAR     61  61 100 CALM      30.06S
OELWEIN *      MOCLDY    64  61  88 W6        30.08R
WATERLOO       CLEAR     64  60  87 NW3       30.07R
$$

IAZ064-065-067-068-078-310500-
   EAST CENTRAL IOWA

CITY           SKY/WX    TMP DP  RH WIND       PRES   REMARKS
DAVENPORT      CLEAR     61  58  90 SW3       30.07R
IOWA CITY      CLEAR     65  61  87 W3        30.08R
MT. PLEASANT * CLEAR     64  61  88 CALM      30.08R
MUSCATINE *    CLEAR     66  61  82 CALM      30.06S
QUAD CITIES    CLEAR     63  58  83 S5        30.05S
$$

IAZ062-063-075>077-085>089-095>099-310500-
   SOUTHEAST IOWA

CITY           SKY/WX    TMP DP  RH WIND       PRES   REMARKS
BURLINGTON     CLEAR     66  61  84 NW5       30.07R
FAIRFIELD *    CLEAR     63  59  88 NW5       30.08S
FORT MADISON * CLEAR     64  63  94 CALM      30.08S
KEOKUK *       CLEAR     64  63  94 CALM      30.07S
OSKALOOSA *      N/A     64  59  82 NW6       30.08S
CENTERVILLE *  CLEAR     57  57 100 CALM      30.11S
OTTUMWA        CLEAR     62  58  86 CALM      30.08S
WASHINGTON *   CLEAR     63  61  94 NW6       30.08R
$$

ABBREVIATIONS USED IN REMARKS
   TC - TEMPERATURES IN CELSIUS
  WCI - WIND CHILL INDEX
   HX - HEAT INDEX
  VSB - VISIBILITY
$$



USA.gov is the U.S. government's official web portal to all federal, state and local government web resources and services.